KF0AIT Weather Reports


time (UTC)temp
C
wind
direction
speed
KPH
gust
KPH
rain 1hr
cm
rain 24hr
cm
rain mn
cm
humidity
%
barometer
mb
20260906060003 23 0 0.0 0.0 0.00 0.00 0.00 79 1011.3
20260906055424 23 0 0.0 0.0 0.00 0.00 0.00 78 1011.3
20260906054524 23 0 0.0 0.0 0.00 0.00 0.00 78 1011.3
20260906053603 23 0 0.0 0.0 0.00 0.00 0.00 78 1011.3
20260906052703 23 0 0.0 0.0 0.00 0.00 0.00 77 1011.3
20260906051803 23 0 0.0 0.0 0.00 0.00 0.00 77 1011.3
20260906050903 23 0 0.0 0.0 0.00 0.00 0.00 76 1011.3
20260906050003 23 0 0.0 0.0 0.00 0.00 0.00 75 1011.3
20260906045403 23 0 0.0 0.0 0.00 0.00 0.00 75 1011.3
20260906044503 23 0 0.0 0.0 0.00 0.00 0.00 75 1011.3
20260906043603 23 0 0.0 0.0 0.00 0.00 0.00 74 1011.3
20260906042724 23 0 0.0 0.0 0.00 0.00 0.00 73 1011.3
20260906041824 23 0 0.0 0.0 0.00 0.00 0.00 73 1011.3
20260906040924 23 135 0.0 1.6 0.00 0.00 0.00 72 1011.3
20260906040003 23 0 0.0 0.0 0.00 0.00 0.00 71 1011.3
20260906035424 23 0 0.0 0.0 0.00 0.00 0.00 70 1011.3
20260906034503 24 0 0.0 0.0 0.00 0.00 0.00 69 1011.3
20260906033624 24 0 0.0 0.0 0.00 0.00 0.00 69 1011.3
20260906032703 24 0 0.0 0.0 0.00 0.00 0.00 68 1011.3
20260906031803 25 0 0.0 0.0 0.00 0.00 0.00 67 1011.3
20260906030903 25 0 0.0 0.0 0.00 0.00 0.00 67 1011.3
20260906030024 25 0 0.0 0.0 0.00 0.00 0.00 66 1011.3
20260906025424 25 0 0.0 0.0 0.00 0.00 0.00 65 1011.3
20260906024503 25 0 0.0 0.0 0.00 0.00 0.00 64 1011.3
20260906023603 25 0 0.0 0.0 0.00 0.00 0.00 63 1011.3
20260906022703 25 135 0.0 3.2 0.00 0.00 0.00 62 1011.3
20260906021803 25 0 0.0 0.0 0.00 0.00 0.00 62 1011.3
20260906020903 25 0 0.0 0.0 0.00 0.00 0.00 61 1010.2
20260906020024 26 0 0.0 0.0 0.00 0.00 0.00 60 1010.2
20260906015403 26 0 0.0 0.0 0.00 0.00 0.00 60 1010.2
20260906014503 26 0 0.0 0.0 0.00 0.00 0.00 59 1010.2
20260906013603 26 0 0.0 0.0 0.00 0.00 0.00 58 1010.2
20260906012724 26 0 0.0 0.0 0.00 0.00 0.00 57 1010.2
20260906011824 26 0 0.0 0.0 0.00 0.00 0.00 56 1010.2
20260906010924 27 0 0.0 0.0 0.00 0.00 0.00 55 1010.2
20260906010003 27 0 0.0 0.0 0.00 0.00 0.00 54 1010.2
20260906005403 27 135 0.0 1.6 0.00 0.00 0.00 53 1010.2
20260906004503 27 135 0.0 1.6 0.00 0.00 0.00 52 1010.2
20260906003603 27 0 0.0 0.0 0.00 0.00 0.00 51 1010.2
20260906002703 28 135 0.0 3.2 0.00 0.00 0.00 50 1009.2
20260906001803 28 135 0.0 3.2 0.00 0.00 0.00 49 1009.2
20260906000924 28 135 0.0 1.6 0.00 0.00 0.00 49 1009.2
20260906000003 28 102 0.0 3.2 0.00 0.00 0.00 49 1009.2
20260905235403 29 100 0.0 3.2 0.00 0.00 0.00 48 1009.2
20260905234503 29 135 0.0 1.6 0.00 0.00 0.00 47 1009.2
20260905233603 29 0 0.0 0.0 0.00 0.00 0.00 47 1009.2
20260905232703 29 157 0.0 1.6 0.00 0.00 0.00 47 1009.2
20260905231803 30 166 0.0 3.2 0.00 0.00 0.00 47 1009.2
20260905230903 30 0 0.0 0.0 0.00 0.00 0.00 47 1009.2
20260905230003 30 180 0.0 4.8 0.00 0.00 0.00 47 1009.2
20260905225403 30 180 0.0 4.8 0.00 0.00 0.00 47 1009.2
20260905224524 30 166 0.0 1.6 0.00 0.00 0.00 47 1009.2
20260905223603 30 166 1.6 1.6 0.00 0.00 0.00 47 1009.2
20260905222724 30 144 0.0 3.2 0.00 0.00 0.00 48 1009.2
20260905221803 30 157 0.0 3.2 0.00 0.00 0.00 48 1009.2
20260905220924 30 133 0.0 3.2 0.00 0.00 0.00 48 1009.2
20260905220024 30 157 0.0 1.6 0.00 0.00 0.00 47 1009.2
20260905215403 30 157 1.6 1.6 0.00 0.00 0.00 47 1009.2
20260905214503 30 157 0.0 1.6 0.00 0.00 0.00 47 1009.2
20260905213603 30 147 0.0 4.8 0.00 0.00 0.00 48 1009.2
20260905212703 30 167 4.8 4.8 0.00 0.00 0.00 47 1009.2
20260905211803 30 174 1.6 1.6 0.00 0.00 0.00 48 1009.2
20260905210903 30 135 0.0 4.8 0.00 0.00 0.00 48 1009.2
20260905210003 29 130 4.8 4.8 0.00 0.00 0.00 48 1009.2
20260905205403 29 121 1.6 1.6 0.00 0.00 0.00 48 1009.2
20260905204524 29 180 0.0 1.6 0.00 0.00 0.00 48 1009.2
20260905203603 29 157 0.0 1.6 0.00 0.00 0.00 48 1009.2
20260905202703 29 176 1.6 3.2 0.00 0.00 0.00 50 1009.2
20260905201803 29 337 0.0 3.2 0.00 0.00 0.00 52 1009.2
20260905200903 28 337 0.0 1.6 0.00 0.00 0.00 53 1009.2
20260905200024 28 0 0.0 0.0 0.00 0.00 0.00 54 1009.2
20260905195424 28 0 0.0 0.0 0.00 0.00 0.00 53 1009.2
20260905194524 28 157 0.0 1.6 0.00 0.00 0.00 53 1009.2
20260905193603 28 163 0.0 1.6 0.00 0.00 0.00 53 1009.2
20260905192724 28 168 1.6 3.2 0.00 0.00 0.00 55 1009.2
20260905191803 27 188 3.2 3.2 0.00 0.00 0.00 56 1009.2
20260905190903 27 0 0.0 0.0 0.00 0.00 0.00 57 1009.2
20260905190003 27 0 0.0 0.0 0.00 0.00 0.00 57 1009.2
20260905185403 27 157 0.0 1.6 0.00 0.00 0.00 57 1009.2
20260905184503 26 157 0.0 4.8 0.00 0.00 0.00 63 1010.2
20260905183603 26 0 0.0 0.0 0.00 0.00 0.00 63 1010.2
20260905182703 26 202 0.0 3.2 0.00 0.00 0.00 63 1010.2
20260905181803 26 157 0.0 1.6 0.00 0.00 0.00 63 1010.2
20260905180903 26 105 1.6 4.8 0.00 0.00 0.00 63 1010.2
20260905180003 26 67 0.0 3.2 0.00 0.00 0.00 63 1010.2
20260905175424 26 90 0.0 3.2 0.00 0.00 0.00 63 1010.2
20260905174524 26 90 0.0 1.6 0.00 0.00 0.00 63 1010.2
20260905173603 26 0 0.0 0.0 0.00 0.00 0.00 63 1010.2
20260905172703 25 0 0.0 0.0 0.00 0.00 0.00 64 1010.2
20260905171803 25 112 0.0 1.6 0.00 0.00 0.00 64 1010.2
20260905170903 25 0 0.0 0.0 0.00 0.00 0.00 65 1010.2
20260905170003 25 157 0.0 3.2 0.00 0.00 0.00 66 1010.2
20260905165403 24 157 0.0 3.2 0.00 0.00 0.00 66 1010.2
20260905164503 24 0 0.0 0.0 0.00 0.00 0.00 67 1010.2
20260905163603 24 0 0.0 0.0 0.00 0.00 0.00 67 1010.2
20260905162703 23 157 0.0 1.6 0.00 0.00 0.00 70 1010.2
20260905161824 23 157 0.0 1.6 0.00 0.00 0.00 70 1010.2
20260905160924 22 157 0.0 1.6 0.00 0.00 0.00 71 1010.2
20260905160003 22 157 0.0 1.6 0.00 0.00 0.00 71 1010.2
20260905155403 22 157 0.0 1.6 0.00 0.00 0.00 71 1010.2
20260905154503 22 157 1.6 1.6 0.00 0.00 0.00 71 1010.2
20260905153603 22 0 0.0 0.0 0.00 0.00 0.00 71 1010.2
20260905152703 22 0 0.0 0.0 0.00 0.00 0.00 71 1010.2
20260905151803 22 157 0.0 3.2 0.00 0.00 0.00 71 1010.2
20260905150903 21 0 0.0 0.0 0.00 0.00 0.00 71 1010.2
20260905150003 21 0 0.0 0.0 0.00 0.00 0.00 71 1010.2
20260905145403 21 0 0.0 0.0 0.00 0.00 0.00 71 1010.2
20260905144503 21 157 0.0 1.6 0.00 0.00 0.00 71 1010.2
20260905143603 21 0 0.0 0.0 0.00 0.00 0.00 72 1010.2
20260905142703 21 0 0.0 0.0 0.00 0.00 0.00 73 1010.2
20260905141803 21 135 0.0 1.6 0.00 0.00 0.00 72 1010.2
20260905140903 21 0 0.0 0.0 0.00 0.00 0.00 73 1010.2
20260905140003 21 135 0.0 1.6 0.00 0.00 0.00 73 1011.3
20260905135403 21 135 1.6 1.6 0.00 0.00 0.00 74 1011.3
20260905134503 21 135 0.0 3.2 0.00 0.00 0.00 75 1011.3
20260905133603 21 135 1.6 6.4 0.00 0.00 0.00 75 1011.3
20260905132724 21 135 0.0 1.6 0.00 0.00 0.00 76 1012.3
20260905131803 21 0 0.0 0.0 0.00 0.00 0.00 76 1012.3
20260905130903 21 161 0.0 1.6 0.00 0.00 0.00 77 1012.3
20260905130003 20 149 0.0 3.2 0.00 0.00 0.00 78 1012.3
20260905125403 20 157 0.0 1.6 0.00 0.00 0.00 79 1012.3
20260905124524 21 0 0.0 0.0 0.00 0.00 0.00 79 1012.3
20260905123603 21 157 0.0 1.6 0.00 0.00 0.00 80 1012.3
20260905122724 21 0 0.0 0.0 0.00 0.00 0.00 81 1012.3
20260905121803 21 0 0.0 0.0 0.00 0.00 0.00 80 1012.3
20260905120924 21 0 0.0 0.0 0.00 0.00 0.00 81 1013.4
20260905120024 21 202 0.0 1.6 0.00 0.00 0.00 81 1013.4
20260905115403 28 217 0.0 3.2 0.00 0.00 0.00 52 1013.4
20260905114503 28 0 0.0 0.0 0.00 0.00 0.00 52 1013.4
20260905113603 28 0 0.0 0.0 0.00 0.00 0.00 52 1013.4
20260905112703 28 0 0.0 0.0 0.00 0.00 0.00 52 1013.4
20260905111803 28 292 0.0 1.6 0.00 0.00 0.00 52 1013.4
20260905110903 28 225 0.0 1.6 0.00 0.00 0.00 52 1012.3
20260905110003 28 225 0.0 1.6 0.00 0.00 0.00 52 1012.3
20260905105403 28 225 0.0 1.6 0.00 0.00 0.00 52 1012.3
20260905104503 28 217 0.0 4.8 0.00 0.00 0.00 52 1012.3
20260905103603 28 169 0.0 4.8 0.00 0.00 0.00 52 1012.3
20260905102703 28 174 3.2 4.8 0.00 0.00 0.00 52 1011.3
20260905101824 28 0 0.0 0.0 0.00 0.00 0.00 52 1011.3
20260905100903 28 0 0.0 0.0 0.00 0.00 0.00 52 1009.2
20260905100003 28 0 0.0 0.0 0.00 0.00 0.00 52 1009.2
20260905095403 28 0 0.0 0.0 0.00 0.00 0.00 52 1009.2
20260905094503 28 0 0.0 0.0 0.00 0.00 0.00 52 1010.2
20260905093603 28 0 0.0 0.0 0.00 0.00 0.00 52 1010.2
20260905092703 28 0 0.0 0.0 0.00 0.00 0.00 52 1010.2
20260905091803 28 0 0.0 0.0 0.00 0.00 0.00 52 1010.2
20260905090903 28 0 0.0 0.0 0.00 0.00 0.00 52 1011.3
20260905090003 28 0 0.0 0.0 0.00 0.00 0.00 52 1011.3
20260905085403 28 0 0.0 0.0 0.00 0.00 0.00 52 1011.3
20260905084503 28 0 0.0 0.0 0.00 0.00 0.00 52 1010.2
20260905083624 28 0 0.0 0.0 0.00 0.00 0.00 52 1010.2
20260905082703 28 0 0.0 0.0 0.00 0.00 0.00 52 1010.2
20260905081803 28 0 0.0 0.0 0.00 0.00 0.00 52 1010.2
20260905080903 28 112 0.0 1.6 0.00 0.00 0.00 52 1010.2
20260905080003 28 112 0.0 3.2 0.00 0.00 0.00 52 1010.2
20260905075403 28 112 0.0 3.2 0.00 0.00 0.00 52 1010.2
20260905074503 28 0 0.0 0.0 0.00 0.00 0.00 52 1010.2
20260905073603 28 0 0.0 0.0 0.00 0.00 0.00 52 1010.2
20260905072703 28 0 0.0 0.0 0.00 0.00 0.00 52 1010.2
20260905071803 28 90 0.0 3.2 0.00 0.00 0.00 52 1010.2
20260905070924 28 0 0.0 0.0 0.00 0.00 0.00 52 1010.2
20260905070003 28 0 0.0 0.0 0.00 0.00 0.00 52 1010.2
20260905065403 28 0 0.0 0.0 0.00 0.00 0.00 52 1010.2
20260905064503 28 0 0.0 0.0 0.00 0.00 0.00 52 1010.2
20260905063624 28 0 0.0 0.0 0.00 0.00 0.00 52 1010.2
20260905062703 28 0 0.0 0.0 0.00 0.00 0.00 52 1010.2
20260905061803 28 0 0.0 0.0 0.00 0.00 0.00 52 1010.2
20260905060903 28 0 0.0 0.0 0.00 0.00 0.00 52 1010.2